[[{"header":{"parameterUnit":"m.s-1","parameterCategory":1,"la1":30.2991,"la2":30.254,"lo1":-89.0895,"lo2":-89.0444,"dy":0.0017,"dx":0.0017,"nx":28,"ny":28,"refTime":"2024-03-13T21:00:00:Z","depth":0,"parameterNumber":2,"parameterNumberName":"U-component_of_WINDS"},"data":[0,0,0,0,0,0,0,0,0,0,0,0,0,0,0,0,0,0,0,0,0,0,0,0,0,0,0,0,0,0,0,0,0,0,0,0,0,0,0,0,0,0,0,0,0,0,0,0,0,0,0,0,0,0,0,0,0,0,-3.8249,-3.8249,0,-3.8311,-3.8312,-3.8312,-3.8274,-3.8273,-3.8271,-3.8269,-3.8332,-3.8336,-3.8339,0,0,0,0,0,0,0,0,0,0,0,0,0,-3.8097,-3.81,-3.8249,-3.825,-3.825,-3.8311,-3.8312,-3.8312,-3.8275,-3.8272,-3.827,-3.8268,-3.8331,-3.8335,-3.8339,0,0,0,0,0,0,0,0,0,0,0,0,0,-3.8161,-3.8101,-3.8249,-3.8239,-3.8239,-3.8311,-3.8312,-3.8313,-3.8275,-3.8272,-3.827,-3.8267,-3.833,-3.8335,-3.834,-3.8425,0,0,-3.8355,-3.8357,0,0,0,0,0,0,0,0,-3.8158,-3.8167,-3.8239,-3.824,-3.8239,-3.8282,-3.8281,-3.835,-3.8276,-3.8261,-3.8269,-3.8266,-3.8318,-3.8324,-3.8341,-3.8428,-3.8431,-3.8356,-3.8359,-3.8361,-3.8362,0,0,0,0,0,0,0,-3.8153,-3.8164,-3.8273,-3.8241,-3.8241,-3.8231,-3.8237,-3.8294,-3.8304,-3.8262,-3.826,-3.8268,-3.8317,-3.8336,-3.8342,-3.8432,-3.8356,-3.836,-3.8363,-3.8365,-3.859,-3.8593,0,0,0,0,0,0,-3.815,-3.8161,-3.8271,-3.8275,-3.8191,-3.8236,-3.8243,-3.8271,-3.8303,-3.8305,-3.827,-3.8266,-3.8329,-3.8337,-3.8344,-3.8445,-3.8361,-3.8366,-3.8368,-3.8587,-3.859,-3.8594,0,0,0,0,0,0,-3.8147,-3.816,-3.8269,-3.8217,-3.823,-3.8241,-3.8274,-3.8274,-3.8293,-3.8309,-3.831,-3.8288,-3.8327,-3.8337,-3.8405,-3.8446,-3.8368,-3.8372,-3.8583,-3.8588,-3.8592,-3.8647,0,0,0,0,0,0,-3.8142,-3.8159,-3.8192,-3.8218,-3.8233,-3.8328,-3.8276,-3.8277,-3.8302,-3.8297,-3.8326,-3.8328,-3.8326,-3.8398,-3.841,-3.8452,-3.8376,-3.858,-3.8585,-3.8591,-3.8641,-3.8653,-3.8662,0,0,0,0,0,-3.8137,-3.8205,-3.8193,-3.8207,-3.8274,-3.8331,-3.8339,-3.8336,-3.8305,-3.8338,-3.8348,-3.8327,-3.8441,-3.8405,-3.8418,-3.8463,-3.8577,-3.8584,-3.859,-3.8637,-3.865,-3.8662,0,0,0,0,0,0,-3.8183,-3.8208,-3.8196,-3.8274,-3.8301,-3.8324,-3.8365,-3.835,-3.8386,-3.838,-3.8374,-3.8381,-3.8451,-3.8464,-3.8424,-3.8546,-3.8504,-3.8514,-3.8534,-3.8548,-3.8558,-3.8552,-3.8381,0,0,0,0,0,-3.8202,-3.8246,-3.8266,-3.8333,-3.8347,-3.8354,-3.8379,-3.8373,-3.8401,-3.8411,-3.8427,-3.8454,-3.8495,-3.8523,-3.8562,-3.8644,-3.8649,-3.8681,-3.8691,-3.87,-3.8708,-3.875,-3.8764,-3.8615,-3.8615,-3.8615,0,0,-3.8242,-3.8261,-3.8289,-3.8343,-3.8363,-3.8408,-3.8364,-3.8414,-3.8447,-3.8419,-3.8483,-3.8496,-3.8525,-3.86,-3.8634,-3.8613,-3.875,-3.8708,-3.8715,-3.8718,-3.8759,-3.8773,-3.8785,-3.862,-3.8619,-3.8618,0,0,-3.8337,-3.8357,-3.8414,-3.8435,-3.8466,-3.847,-3.8484,-3.851,-3.8517,-3.8582,-3.8561,-3.8601,-3.8673,-3.8695,-3.8715,-3.8819,-3.8801,-3.8832,-3.8886,-3.8928,-3.8939,-3.895,-3.8985,-3.8998,-3.884,-3.8841,-3.8841,0,-3.8382,-3.845,-3.8446,-3.8497,-3.852,-3.8498,-3.8555,-3.8576,-3.8618,-3.8635,-3.8611,-3.87,-3.8719,-3.8798,-3.8823,-3.8841,-3.8856,-3.8828,-3.8938,-3.8949,-3.8958,-3.8991,-3.9005,-3.8844,-3.8844,-3.8843,-3.8843,0,-3.8503,-3.8551,-3.8593,-3.8634,-3.8663,-3.8717,-3.8721,-3.875,-3.8743,-3.875,-3.8815,-3.8837,-3.8879,-3.8898,-3.8892,-3.8976,-3.8962,-3.8939,-3.8896,-3.8976,-3.9007,-3.902,-3.8849,-3.8848,-3.8847,-3.8846,0,0,-3.8628,-3.8666,-3.8681,-3.8699,-3.8731,-3.8767,-3.8821,-3.8862,-3.8887,-3.8917,-3.8961,-3.9022,-3.9001,-3.9024,-3.902,-3.9057,-3.9136,-3.9029,-3.903,-3.9046,-3.9228,-3.9243,-3.9258,-3.9125,-3.9128,-3.913,-3.9225,0,-3.8723,-3.8815,-3.8813,-3.8899,-3.8942,-3.8921,-3.8967,-3.8992,-3.9,-3.9037,-3.9046,-3.9089,-3.9059,-3.9072,-3.9108,-3.9119,-3.9172,-3.9112,-3.9164,-3.9166,-3.9155,-3.9275,-3.9292,-3.938,-3.9237,-3.9239,-3.9241,0,-3.8847,-3.888,-3.897,-3.8995,-3.9013,-3.9055,-3.9092,-3.9129,-3.9156,-3.9159,-3.9186,-3.9176,-3.9229,-3.9187,-3.9259,-3.9219,-3.924,-3.9249,-3.9252,-3.9255,-3.9206,-3.9279,-3.9409,-3.9421,-3.926,-3.9259,-3.9257,0,-3.8925,-3.8994,-3.9056,-3.9072,-3.9103,-3.9133,-3.9147,-3.9172,-3.9197,-3.923,-3.9246,-3.9286,-3.9307,-3.9337,-3.9338,-3.9307,-3.9411,-3.9369,-3.9414,-3.9414,-3.9434,-3.9433,-3.9567,-3.9453,-3.9452,-3.9452,-3.9452,0,-3.9031,-3.9086,-3.9091,-3.9129,-3.919,-3.9188,-3.9248,-3.926,-3.9282,-3.9322,-3.9308,-3.9345,-3.9345,-3.9383,-3.9384,-3.9443,-3.9454,-3.9457,-3.9456,-3.9457,-3.9456,-3.9469,-3.9462,-3.9456,-3.9455,-3.9454,-3.9454,0,-3.9128,-3.9134,-3.92,-3.9225,-3.9232,-3.9276,-3.9297,-3.9333,-3.934,-3.939,-3.9402,-3.9413,-3.9457,-3.9461,-3.9513,-3.9513,-3.9584,-3.9578,-3.9574,-3.9572,-3.9616,-3.9611,-3.9762,-3.9781,-3.9656,-3.9657,-3.9658,0,-3.9194,-3.9235,-3.9265,-3.929,-3.9306,-3.9348,-3.9373,-3.9372,-3.9399,-3.9433,-3.9465,-3.9508,-3.9541,-3.9613,-3.9625,-3.9664,-3.9657,-3.9708,-3.9663,-3.9662,-3.9655,-3.9652,-3.9655,-3.9715,-3.9717,-3.9718,-3.9719,0,-3.9309,-3.931,-3.9347,-3.9385,-3.9415,-3.9445,-3.9473,-3.9495,-3.9497,-3.9528,-3.9573,-3.9599,-3.9652,-3.9694,-3.9732,-3.9747,-3.9733,-3.9733,-3.9745,-3.9745,-3.974,-3.9741,-3.9595,-3.9729,-3.9728,-3.9727,-3.9727,-3.9726,-3.9391,-3.9426,-3.9452,-3.9494,-3.9515,-3.9541,-3.9575,-3.9587,-3.9624,-3.9666,-3.9664,-3.9713,-3.9739,-3.9789,-3.9807,-3.9845,-3.9828,-3.9846,-3.985,-3.9854,-3.9857,-3.9736,-3.9852,-3.9852,-3.9852,-3.9852,-3.9851,0,-3.9503,-3.9519,-3.9557,-3.9596,-3.9629,-3.9614,-3.9644,-3.9672,-3.9715,-3.9741,-3.9774,-3.9825,-3.9866,-3.9882,-3.9922,-3.9949,-3.9943,-3.9959,-3.9956,-3.9959,-3.9871,-3.9856,-3.9963,-3.9963,-3.9963,-3.9963,-3.9963,-3.9963,-3.9565,-3.9624,-3.9628,-3.9697,-3.9713,-3.976,-3.9778,-3.9803,-3.9823,-3.988,-3.9914,-3.9924,-3.9946,-3.9987,-4.0023,-4.0027,-4.0041,-4.0059,-4.006,-3.9977,-3.9965,-3.9955,-3.994,-4.0063,-4.0063,-4.0144,-4.0145,-4.0145]},{"header":{"parameterUnit":"m.s-1","parameterCategory":1,"la1":30.2991,"la2":30.254,"lo1":-89.0895,"lo2":-89.0444,"dy":0.0017,"dx":0.0017,"nx":28,"ny":28,"refTime":"2024-03-13T21:00:00:Z","depth":0,"parameterNumber":3,"parameterNumberName":"V-component_of_WINDS"},"data":[0,0,0,0,0,0,0,0,0,0,0,0,0,0,0,0,0,0,0,0,0,0,0,0,0,0,0,0,0,0,0,0,0,0,0,0,0,0,0,0,0,0,0,0,0,0,0,0,0,0,0,0,0,0,0,0,0,0,1.3085,1.3085,0,1.3133,1.3133,1.3134,1.3135,1.3135,1.3134,1.3133,1.3184,1.3186,1.3188,0,0,0,0,0,0,0,0,0,0,0,0,0,1.2997,1.2998,1.3085,1.3085,1.3086,1.3133,1.3133,1.3134,1.3135,1.3135,1.3134,1.3133,1.3184,1.3186,1.3188,0,0,0,0,0,0,0,0,0,0,0,0,0,1.3039,1.2999,1.3085,1.3092,1.3093,1.3133,1.3133,1.3134,1.3135,1.3135,1.3134,1.3133,1.3183,1.3186,1.3189,1.3224,0,0,1.3197,1.3199,0,0,0,0,0,0,0,0,1.3037,1.3042,1.309,1.3092,1.3093,1.3127,1.3121,1.3165,1.3136,1.3119,1.3133,1.3132,1.3166,1.317,1.3181,1.3227,1.3229,1.3198,1.3199,1.3201,1.3201,0,0,0,0,0,0,0,1.3034,1.304,1.3104,1.3091,1.3093,1.3094,1.3099,1.3129,1.3147,1.3121,1.3121,1.3127,1.3167,1.3179,1.3183,1.323,1.3198,1.32,1.3202,1.3203,1.3309,1.331,0,0,0,0,0,0,1.3029,1.3038,1.3102,1.3105,1.3062,1.3096,1.3102,1.3117,1.3147,1.3151,1.3127,1.3126,1.3174,1.3179,1.3184,1.323,1.3201,1.3203,1.3205,1.3308,1.331,1.3311,0,0,0,0,0,0,1.3027,1.3035,1.31,1.3072,1.308,1.3099,1.3116,1.3119,1.313,1.3152,1.3155,1.3136,1.3174,1.318,1.3215,1.3232,1.3205,1.3207,1.3307,1.3309,1.331,1.332,0,0,0,0,0,0,1.3025,1.3034,1.3047,1.3072,1.3082,1.3129,1.3117,1.312,1.3135,1.3135,1.3161,1.3164,1.3173,1.3211,1.3218,1.3235,1.3209,1.3306,1.3308,1.331,1.3319,1.3322,1.3325,0,0,0,0,0,1.3021,1.3048,1.3048,1.3055,1.3098,1.313,1.3136,1.3145,1.3136,1.315,1.3165,1.3164,1.3228,1.3214,1.3222,1.3241,1.3305,1.3307,1.3309,1.3317,1.3321,1.3325,0,0,0,0,0,0,1.3024,1.3051,1.3051,1.3086,1.3106,1.313,1.3148,1.3149,1.3172,1.317,1.3181,1.3187,1.3222,1.3235,1.3218,1.3278,1.3266,1.327,1.3269,1.3273,1.3276,1.3273,1.3212,0,0,0,0,0,1.3029,1.3052,1.3074,1.3103,1.3113,1.3129,1.3143,1.3148,1.317,1.3178,1.3195,1.3216,1.3241,1.3258,1.3282,1.332,1.3327,1.3337,1.334,1.3343,1.3347,1.3371,1.3376,1.3319,1.3319,1.3319,0,0,1.3039,1.3056,1.307,1.3104,1.312,1.3145,1.3136,1.3162,1.3181,1.3182,1.3216,1.3229,1.3254,1.3291,1.3308,1.3302,1.3364,1.3346,1.3348,1.3351,1.3374,1.3379,1.3384,1.3321,1.332,1.332,0,0,1.307,1.3084,1.3111,1.3128,1.3152,1.3162,1.3169,1.3194,1.3202,1.3237,1.3239,1.3262,1.3305,1.3323,1.3338,1.3378,1.3379,1.3385,1.3403,1.3426,1.343,1.3434,1.3451,1.3456,1.3389,1.3389,1.3389,0,1.3079,1.3116,1.3125,1.3152,1.3167,1.317,1.3198,1.3213,1.3245,1.3256,1.3249,1.3305,1.3321,1.3364,1.3374,1.3385,1.3394,1.3383,1.3429,1.3433,1.3437,1.3453,1.3458,1.339,1.339,1.3389,1.3389,0,1.3127,1.3153,1.3172,1.3202,1.322,1.3247,1.3262,1.3279,1.3283,1.3295,1.3331,1.3351,1.3381,1.3391,1.3395,1.3435,1.3431,1.3426,1.3414,1.3443,1.3458,1.3464,1.3391,1.339,1.339,1.339,0,0,1.3161,1.3197,1.3204,1.3219,1.3247,1.3267,1.3296,1.3324,1.334,1.3362,1.3387,1.3424,1.342,1.3437,1.3444,1.3464,1.3497,1.3457,1.3458,1.3465,1.3544,1.3549,1.3555,1.3497,1.3498,1.3499,1.3543,0,1.3197,1.3246,1.3256,1.33,1.3325,1.3328,1.3353,1.3374,1.3386,1.341,1.3423,1.345,1.3443,1.3453,1.3473,1.3488,1.3513,1.3485,1.3522,1.3524,1.3518,1.3563,1.3567,1.3608,1.3549,1.355,1.355,0,1.3245,1.3268,1.3315,1.3341,1.3352,1.3374,1.3402,1.3425,1.3449,1.3456,1.3476,1.3481,1.3512,1.3498,1.3542,1.3523,1.3539,1.3549,1.3551,1.3556,1.354,1.3571,1.362,1.3627,1.3559,1.3558,1.3558,0,1.3267,1.331,1.3344,1.3357,1.3388,1.3404,1.3418,1.3441,1.3458,1.3483,1.3495,1.3523,1.3539,1.3561,1.3574,1.3562,1.3618,1.3605,1.3627,1.3627,1.364,1.3639,1.3694,1.3647,1.3647,1.3647,1.3647,0,1.3307,1.3336,1.3355,1.3376,1.3409,1.3421,1.3453,1.3467,1.3488,1.3513,1.3517,1.3541,1.3555,1.3582,1.3592,1.3628,1.3635,1.3643,1.3646,1.3644,1.3643,1.3655,1.3654,1.3648,1.3648,1.3648,1.3647,0,1.3338,1.3352,1.339,1.3416,1.3424,1.3447,1.3471,1.3492,1.3505,1.3536,1.3544,1.3564,1.3595,1.361,1.3648,1.3656,1.3698,1.3697,1.369,1.3691,1.3713,1.3712,1.378,1.379,1.3734,1.3735,1.3735,0,1.3363,1.3386,1.3415,1.3432,1.3446,1.3473,1.3491,1.3504,1.3523,1.3553,1.3571,1.3602,1.3628,1.3678,1.3696,1.3726,1.3728,1.375,1.3733,1.3731,1.3731,1.373,1.3734,1.3754,1.3754,1.3755,1.3755,0,1.3407,1.3414,1.3439,1.3468,1.3489,1.3512,1.3535,1.3549,1.3565,1.3586,1.3618,1.3638,1.3678,1.371,1.3741,1.3757,1.376,1.376,1.3767,1.3766,1.3762,1.3767,1.37,1.3759,1.3758,1.3758,1.3758,1.3758,1.3438,1.3459,1.3483,1.3512,1.3531,1.3552,1.3574,1.359,1.3617,1.365,1.3656,1.369,1.3716,1.3758,1.3775,1.3803,1.3798,1.3808,1.3811,1.3814,1.3816,1.3756,1.3808,1.3808,1.3808,1.3808,1.3808,0,1.3484,1.35,1.3526,1.3559,1.3582,1.3582,1.3607,1.3627,1.3657,1.3681,1.3706,1.3744,1.3775,1.3796,1.3828,1.3847,1.3849,1.3855,1.3855,1.3859,1.3817,1.3809,1.3853,1.3853,1.3853,1.3853,1.3853,1.3853,1.3511,1.3547,1.3556,1.3602,1.3618,1.3652,1.3667,1.3688,1.3707,1.3749,1.3775,1.3788,1.3811,1.3845,1.3875,1.388,1.3893,1.3899,1.3905,1.3866,1.3862,1.3857,1.3849,1.3901,1.3901,1.3945,1.3945,1.3946]}]]